User: anonymous   Login
Location: Unspecified
(0.0000°N, 0.0000°E)
Time: 08:44:12
(UTC+00:00)
Language:

CSUNSAT 1 - Orbit

View from above orbital plane
View from above orbital plane
View from above satellite
View from above satellite

Ground track
Ground track

The orbit data is extracted from the following two-line orbital elements,

1 42715U 98067LW  19125.26904075  .15894941  12567-4  41505-3 0  9994
2 42715  51.6151 127.9321 0004619 278.8566  95.8002 16.45622418112486
Epoch (UTC): 05 May 2019 06:27:25
Eccentricity: 0.0004619
inclination: 51.6151°
perigee height: 148 km
apogee height: 154 km
right ascension of ascending node: 127.9321°
argument of perigee: 278.8566°
revolutions per day: 16.45622418
mean anomaly at epoch: 95.8002°
orbit number at epoch: 11248

The dashed part of the orbit path shows where the satellite is in the earth's shadow,  

DLR